Time,TemperatureF,DewpointF,PressureIn,WindDirection,WindDirectionDegrees,WindSpeedMPH,WindSpeedGustMPH,Humidity,HourlyPrecipIn,Conditions,Clouds,dailyrainin,SoftwareType,DateUTC
2013-01-01 00:02:00,24.0,-99.9,-100.00,North,-999,-999.0,-999.0,-999,0.01,,,-99.99,,2013-01-01 07:02:00,
2013-01-01 00:12:00,24.0,-99.9,-100.00,North,-999,-999.0,-999.0,-999,0.01,,,-99.99,,2013-01-01 07:12:00,
2013-01-01 00:22:00,24.0,-99.9,-100.00,North,-999,-999.0,-999.0,-999,0.01,,,-99.99,,2013-01-01 07:22:00,
2013-01-01 00:30:00,24.0,-99.9,-100.00,North,-999,-999.0,-999.0,-999,0.00,,,0.00,,2013-01-01 07:30:00,
2013-01-01 00:53:00,24.0,-99.9,-100.00,North,-999,-999.0,-999.0,-999,0.00,,,0.00,,2013-01-01 07:53:00,
2013-01-01 01:02:00,24.0,-99.9,-100.00,North,-999,-999.0,-999.0,-999,0.00,,,0.00,,2013-01-01 08:02:00,
2013-01-01 01:12:00,24.0,-99.9,-100.00,North,-999,-999.0,-999.0,-999,0.00,,,0.00,,2013-01-01 08:12:00,
2013-01-01 01:22:00,24.0,-99.9,-100.00,North,-999,-999.0,-999.0,-999,0.00,,,0.00,,2013-01-01 08:22:00,
2013-01-01 01:30:00,24.0,-99.9,-100.00,North,-999,-999.0,-999.0,-999,0.01,,,0.01,,2013-01-01 08:30:00,
2013-01-01 01:54:00,24.0,-99.9,-100.00,North,-999,-999.0,-999.0,-999,0.01,,,0.01,,2013-01-01 08:54:00,
2013-01-01 02:02:00,24.0,-99.9,-100.00,North,-999,-999.0,-999.0,-999,0.01,,,0.01,,2013-01-01 09:02:00,
2013-01-01 02:12:00,24.0,-99.9,-100.00,North,-999,-999.0,-999.0,-999,0.01,,,0.01,,2013-01-01 09:12:00,
2013-01-01 02:22:00,24.0,-99.9,-100.00,North,-999,-999.0,-999.0,-999,0.01,,,0.01,,2013-01-01 09:22:00,
2013-01-01 02:30:00,24.0,-99.9,-100.00,North,-999,-999.0,-999.0,-999,-99.99,,,-99.99,,2013-01-01 09:30:00,
2013-01-01 02:53:00,24.0,-99.9,-100.00,North,-999,-999.0,-999.0,-999,-99.99,,,-99.99,,2013-01-01 09:53:00,
2013-01-01 03:02:00,24.0,-99.9,-100.00,North,-999,-999.0,-999.0,-999,-99.99,,,-99.99,,2013-01-01 10:02:00,
2013-01-01 03:12:00,24.0,-99.9,-100.00,North,-999,-999.0,-999.0,-999,-99.99,,,-99.99,,2013-01-01 10:12:00,
2013-01-01 03:22:00,24.0,-99.9,-100.00,North,-999,-999.0,-999.0,-999,-99.99,,,-99.99,,2013-01-01 10:22:00,
2013-01-01 03:30:00,25.0,-99.9,-100.00,North,-999,-999.0,-999.0,-999,0.01,,,0.00,,2013-01-01 10:30:00,
2013-01-01 03:53:00,25.0,-99.9,-100.00,North,-999,-999.0,-999.0,-999,0.01,,,0.00,,2013-01-01 10:53:00,
2013-01-01 04:02:00,25.0,-99.9,-100.00,North,-999,-999.0,-999.0,-999,0.01,,,0.00,,2013-01-01 11:02:00,
2013-01-01 04:12:00,25.0,-99.9,-100.00,North,-999,-999.0,-999.0,-999,0.01,,,0.00,,2013-01-01 11:12:00,
2013-01-01 04:23:00,25.0,-99.9,-100.00,North,-999,-999.0,-999.0,-999,0.01,,,0.00,,2013-01-01 11:23:00,
2013-01-01 04:30:00,25.0,-99.9,-100.00,North,-999,-999.0,-999.0,-999,0.01,,,0.00,,2013-01-01 11:30:00,
2013-01-01 04:53:00,25.0,-99.9,-100.00,North,-999,-999.0,-999.0,-999,0.01,,,0.00,,2013-01-01 11:53:00,
2013-01-01 05:03:00,25.0,-99.9,-100.00,North,-999,-999.0,-999.0,-999,0.01,,,0.00,,2013-01-01 12:03:00,
2013-01-01 05:12:00,25.0,-99.9,-100.00,North,-999,-999.0,-999.0,-999,0.01,,,0.00,,2013-01-01 12:12:00,
2013-01-01 05:23:00,25.0,-99.9,-100.00,North,-999,-999.0,-999.0,-999,0.01,,,0.00,,2013-01-01 12:23:00,
2013-01-01 05:30:00,25.0,-99.9,-100.00,North,-999,-999.0,-999.0,-999,-99.99,,,-99.99,,2013-01-01 12:30:00,
2013-01-01 05:53:00,25.0,-99.9,-100.00,North,-999,-999.0,-999.0,-999,-99.99,,,-99.99,,2013-01-01 12:53:00,
2013-01-01 06:03:00,25.0,-99.9,-100.00,North,-999,-999.0,-999.0,-999,-99.99,,,-99.99,,2013-01-01 13:03:00,
2013-01-01 06:12:00,25.0,-99.9,-100.00,North,-999,-999.0,-999.0,-999,-99.99,,,-99.99,,2013-01-01 13:12:00,
2013-01-01 06:23:00,25.0,-99.9,-100.00,North,-999,-999.0,-999.0,-999,-99.99,,,-99.99,,2013-01-01 13:23:00,
2013-01-01 06:30:00,25.0,-99.9,-100.00,North,-999,-999.0,-999.0,-999,0.01,,,0.00,,2013-01-01 13:30:00,
2013-01-01 06:53:00,25.0,-99.9,-100.00,North,-999,-999.0,-999.0,-999,0.01,,,0.00,,2013-01-01 13:53:00,
2013-01-01 07:03:00,25.0,-99.9,-100.00,North,-999,-999.0,-999.0,-999,0.01,,,0.00,,2013-01-01 14:03:00,
2013-01-01 07:12:00,25.0,-99.9,-100.00,North,-999,-999.0,-999.0,-999,0.01,,,0.00,,2013-01-01 14:12:00,
2013-01-01 07:23:00,25.0,-99.9,-100.00,North,-999,-999.0,-999.0,-999,0.01,,,0.00,,2013-01-01 14:23:00,
2013-01-01 07:30:00,24.0,-99.9,-100.00,North,-999,-999.0,-999.0,-999,0.01,,,0.01,,2013-01-01 14:30:00,
2013-01-01 07:53:00,24.0,-99.9,-100.00,North,-999,-999.0,-999.0,-999,0.01,,,0.01,,2013-01-01 14:53:00,
2013-01-01 08:03:00,24.0,-99.9,-100.00,North,-999,-999.0,-999.0,-999,0.01,,,0.01,,2013-01-01 15:03:00,
2013-01-01 08:13:00,24.0,-99.9,-100.00,North,-999,-999.0,-999.0,-999,0.01,,,0.01,,2013-01-01 15:13:00,
2013-01-01 08:22:00,24.0,-99.9,-100.00,North,-999,-999.0,-999.0,-999,0.01,,,0.01,,2013-01-01 15:22:00,
2013-01-01 08:30:00,24.0,-99.9,-100.00,North,-999,-999.0,-999.0,-999,0.00,,,0.00,,2013-01-01 15:30:00,
2013-01-01 08:53:00,24.0,-99.9,-100.00,North,-999,-999.0,-999.0,-999,0.00,,,0.00,,2013-01-01 15:53:00,
2013-01-01 09:03:00,24.0,-99.9,-100.00,North,-999,-999.0,-999.0,-999,0.00,,,0.00,,2013-01-01 16:03:00,
2013-01-01 09:12:00,24.0,-99.9,-100.00,North,-999,-999.0,-999.0,-999,0.00,,,0.00,,2013-01-01 16:12:00,
2013-01-01 09:23:00,24.0,-99.9,-100.00,North,-999,-999.0,-999.0,-999,0.00,,,0.00,,2013-01-01 16:23:00,
2013-01-01 09:30:00,25.0,-99.9,-100.00,North,-999,-999.0,-999.0,-999,0.00,,,0.01,,2013-01-01 16:30:00,
2013-01-01 09:53:00,25.0,-99.9,-100.00,North,-999,-999.0,-999.0,-999,0.00,,,0.01,,2013-01-01 16:53:00,
2013-01-01 10:03:00,25.0,-99.9,-100.00,North,-999,-999.0,-999.0,-999,0.00,,,0.01,,2013-01-01 17:03:00,
2013-01-01 10:12:00,25.0,-99.9,-100.00,North,-999,-999.0,-999.0,-999,0.00,,,0.01,,2013-01-01 17:12:00,
2013-01-01 10:23:00,25.0,-99.9,-100.00,North,-999,-999.0,-999.0,-999,0.00,,,0.01,,2013-01-01 17:23:00,
2013-01-01 10:30:00,25.0,-99.9,-100.00,North,-999,-999.0,-999.0,-999,-99.99,,,-99.99,,2013-01-01 17:30:00,
2013-01-01 10:53:00,25.0,-99.9,-100.00,North,-999,-999.0,-999.0,-999,-99.99,,,-99.99,,2013-01-01 17:53:00,
2013-01-01 11:03:00,25.0,-99.9,-100.00,North,-999,-999.0,-999.0,-999,-99.99,,,-99.99,,2013-01-01 18:03:00,
2013-01-01 11:13:00,25.0,-99.9,-100.00,North,-999,-999.0,-999.0,-999,-99.99,,,-99.99,,2013-01-01 18:13:00,
2013-01-01 11:23:00,25.0,-99.9,-100.00,North,-999,-999.0,-999.0,-999,-99.99,,,-99.99,,2013-01-01 18:23:00,
2013-01-01 11:30:00,26.0,-99.9,-100.00,North,-999,-999.0,-999.0,-999,0.01,,,0.02,,2013-01-01 18:30:00,
2013-01-01 11:53:00,26.0,-99.9,-100.00,North,-999,-999.0,-999.0,-999,0.01,,,0.02,,2013-01-01 18:53:00,
2013-01-01 12:03:00,26.0,-99.9,-100.00,North,-999,-999.0,-999.0,-999,0.01,,,0.02,,2013-01-01 19:03:00,
2013-01-01 12:12:00,26.0,-99.9,-100.00,North,-999,-999.0,-999.0,-999,0.01,,,0.02,,2013-01-01 19:12:00,
2013-01-01 12:23:00,26.0,-99.9,-100.00,North,-999,-999.0,-999.0,-999,0.01,,,0.02,,2013-01-01 19:23:00,
2013-01-01 12:30:00,27.0,-99.9,-100.00,North,-999,-999.0,-999.0,-999,0.00,,,0.01,,2013-01-01 19:30:00,
2013-01-01 12:53:00,27.0,-99.9,-100.00,North,-999,-999.0,-999.0,-999,0.00,,,0.01,,2013-01-01 19:53:00,
2013-01-01 13:03:00,27.0,-99.9,-100.00,North,-999,-999.0,-999.0,-999,0.00,,,0.01,,2013-01-01 20:03:00,
2013-01-01 13:13:00,27.0,-99.9,-100.00,North,-999,-999.0,-999.0,-999,0.00,,,0.01,,2013-01-01 20:13:00,
2013-01-01 13:23:00,27.0,-99.9,-100.00,North,-999,-999.0,-999.0,-999,0.00,,,0.01,,2013-01-01 20:23:00,
2013-01-01 13:30:00,27.0,-99.9,-100.00,North,-999,-999.0,-999.0,-999,0.00,,,0.00,,2013-01-01 20:30:00,
2013-01-01 13:53:00,27.0,-99.9,-100.00,North,-999,-999.0,-999.0,-999,0.00,,,0.00,,2013-01-01 20:53:00,
2013-01-01 14:03:00,27.0,-99.9,-100.00,North,-999,-999.0,-999.0,-999,0.00,,,0.00,,2013-01-01 21:03:00,
2013-01-01 14:13:00,27.0,-99.9,-100.00,North,-999,-999.0,-999.0,-999,0.00,,,0.00,,2013-01-01 21:13:00,
2013-01-01 14:23:00,27.0,-99.9,-100.00,North,-999,-999.0,-999.0,-999,0.00,,,0.00,,2013-01-01 21:23:00,
2013-01-01 14:30:00,27.0,-99.9,-100.00,North,-999,-999.0,-999.0,-999,0.00,,,0.01,,2013-01-01 21:30:00,
2013-01-01 14:53:00,27.0,-99.9,-100.00,North,-999,-999.0,-999.0,-999,0.00,,,0.01,,2013-01-01 21:53:00,
2013-01-01 15:03:00,27.0,-99.9,-100.00,North,-999,-999.0,-999.0,-999,0.00,,,0.01,,2013-01-01 22:03:00,
2013-01-01 15:13:00,27.0,-99.9,-100.00,North,-999,-999.0,-999.0,-999,0.00,,,0.01,,2013-01-01 22:13:00,
2013-01-01 15:23:00,27.0,-99.9,-100.00,North,-999,-999.0,-999.0,-999,0.00,,,0.01,,2013-01-01 22:23:00,
2013-01-01 15:30:00,27.0,-99.9,-100.00,North,-999,-999.0,-999.0,-999,-99.99,,,-99.99,,2013-01-01 22:30:00,
2013-01-01 15:53:00,27.0,-99.9,-100.00,North,-999,-999.0,-999.0,-999,-99.99,,,-99.99,,2013-01-01 22:53:00,
2013-01-01 16:03:00,27.0,-99.9,-100.00,North,-999,-999.0,-999.0,-999,-99.99,,,-99.99,,2013-01-01 23:03:00,
2013-01-01 16:13:00,27.0,-99.9,-100.00,North,-999,-999.0,-999.0,-999,-99.99,,,-99.99,,2013-01-01 23:13:00,
2013-01-01 16:22:00,27.0,-99.9,-100.00,North,-999,-999.0,-999.0,-999,-99.99,,,-99.99,,2013-01-01 23:22:00,
2013-01-01 16:30:00,27.0,-99.9,-100.00,North,-999,-999.0,-999.0,-999,0.01,,,-99.99,,2013-01-01 23:30:00,
2013-01-01 16:53:00,27.0,-99.9,-100.00,North,-999,-999.0,-999.0,-999,0.01,,,-99.99,,2013-01-01 23:53:00,
2013-01-01 17:03:00,27.0,-99.9,-100.00,North,-999,-999.0,-999.0,-999,0.01,,,-99.99,,2013-01-02 00:03:00,
2013-01-01 17:12:00,27.0,-99.9,-100.00,North,-999,-999.0,-999.0,-999,0.01,,,-99.99,,2013-01-02 00:12:00,
2013-01-01 17:23:00,27.0,-99.9,-100.00,North,-999,-999.0,-999.0,-999,0.01,,,-99.99,,2013-01-02 00:23:00,
2013-01-01 17:30:00,25.0,-99.9,-100.00,North,-999,-999.0,-999.0,-999,0.01,,,0.02,,2013-01-02 00:30:00,
2013-01-01 17:53:00,25.0,-99.9,-100.00,North,-999,-999.0,-999.0,-999,0.01,,,0.02,,2013-01-02 00:53:00,
2013-01-01 18:02:00,25.0,-99.9,-100.00,North,-999,-999.0,-999.0,-999,0.01,,,0.02,,2013-01-02 01:02:00,
2013-01-01 18:12:00,25.0,-99.9,-100.00,North,-999,-999.0,-999.0,-999,0.01,,,0.02,,2013-01-02 01:12:00,
2013-01-01 18:22:00,25.0,-99.9,-100.00,North,-999,-999.0,-999.0,-999,0.01,,,0.02,,2013-01-02 01:22:00,
2013-01-01 18:30:00,25.0,-99.9,-100.00,North,-999,-999.0,-999.0,-999,0.00,,,0.02,,2013-01-02 01:30:00,
2013-01-01 18:53:00,25.0,-99.9,-100.00,North,-999,-999.0,-999.0,-999,0.00,,,0.02,,2013-01-02 01:53:00,
2013-01-01 19:02:00,25.0,-99.9,-100.00,North,-999,-999.0,-999.0,-999,0.00,,,0.02,,2013-01-02 02:02:00,
2013-01-01 19:12:00,25.0,-99.9,-100.00,North,-999,-999.0,-999.0,-999,0.00,,,0.02,,2013-01-02 02:12:00,
2013-01-01 19:22:00,25.0,-99.9,-100.00,North,-999,-999.0,-999.0,-999,0.00,,,0.02,,2013-01-02 02:22:00,
2013-01-01 19:30:00,25.0,-99.9,-100.00,North,-999,-999.0,-999.0,-999,0.00,,,0.01,,2013-01-02 02:30:00,
2013-01-01 19:53:00,25.0,-99.9,-100.00,North,-999,-999.0,-999.0,-999,0.00,,,0.01,,2013-01-02 02:53:00,
2013-01-01 20:02:00,25.0,-99.9,-100.00,North,-999,-999.0,-999.0,-999,0.00,,,0.01,,2013-01-02 03:02:00,
2013-01-01 20:12:00,25.0,-99.9,-100.00,North,-999,-999.0,-999.0,-999,0.00,,,0.01,,2013-01-02 03:12:00,
2013-01-01 20:22:00,25.0,-99.9,-100.00,North,-999,-999.0,-999.0,-999,0.00,,,0.01,,2013-01-02 03:22:00,
2013-01-01 20:30:00,24.0,-99.9,-100.00,North,-999,-999.0,-999.0,-999,-99.99,,,-99.99,,2013-01-02 03:30:00,
2013-01-01 20:53:00,24.0,-99.9,-100.00,North,-999,-999.0,-999.0,-999,-99.99,,,-99.99,,2013-01-02 03:53:00,
2013-01-01 21:03:00,24.0,-99.9,-100.00,North,-999,-999.0,-999.0,-999,-99.99,,,-99.99,,2013-01-02 04:03:00,
2013-01-01 21:12:00,24.0,-99.9,-100.00,North,-999,-999.0,-999.0,-999,-99.99,,,-99.99,,2013-01-02 04:12:00,
2013-01-01 21:22:00,24.0,-99.9,-100.00,North,-999,-999.0,-999.0,-999,-99.99,,,-99.99,,2013-01-02 04:22:00,
2013-01-01 21:30:00,24.0,-99.9,-100.00,North,-999,-999.0,-999.0,-999,0.00,,,-99.99,,2013-01-02 04:30:00,
2013-01-01 21:53:00,24.0,-99.9,-100.00,North,-999,-999.0,-999.0,-999,0.00,,,-99.99,,2013-01-02 04:53:00,
2013-01-01 22:03:00,24.0,-99.9,-100.00,North,-999,-999.0,-999.0,-999,0.00,,,-99.99,,2013-01-02 05:03:00,
2013-01-01 22:12:00,24.0,-99.9,-100.00,North,-999,-999.0,-999.0,-999,0.00,,,-99.99,,2013-01-02 05:12:00,
2013-01-01 22:23:00,24.0,-99.9,-100.00,North,-999,-999.0,-999.0,-999,0.00,,,-99.99,,2013-01-02 05:23:00,
2013-01-01 22:30:00,24.0,-99.9,-100.00,North,-999,-999.0,-999.0,-999,0.01,,,0.01,,2013-01-02 05:30:00,
2013-01-01 22:53:00,24.0,-99.9,-100.00,North,-999,-999.0,-999.0,-999,0.01,,,0.01,,2013-01-02 05:53:00,
2013-01-01 23:02:00,24.0,-99.9,-100.00,North,-999,-999.0,-999.0,-999,0.01,,,0.01,,2013-01-02 06:02:00,
2013-01-01 23:12:00,24.0,-99.9,-100.00,North,-999,-999.0,-999.0,-999,0.01,,,0.01,,2013-01-02 06:12:00,
2013-01-01 23:22:00,24.0,-99.9,-100.00,North,-999,-999.0,-999.0,-999,0.01,,,0.01,,2013-01-02 06:22:00,
2013-01-01 23:30:00,24.0,-99.9,-100.00,North,-999,-999.0,-999.0,-999,0.00,,,0.00,,2013-01-02 06:30:00,
2013-01-01 23:53:00,24.0,-99.9,-100.00,North,-999,-999.0,-999.0,-999,0.00,,,0.00,,2013-01-02 06:53:00,